Flag for Macedonia, Republic of Weather past 2 weeks in Kumanovo, Macedonia, Republic of

Now
77 °F

Passing clouds.


Feels Like: 79 °F
Forecast: 61 / 84 °F
Wind: No wind

Location: Skopje-Petrovec

Current Time: Jul 26, 2014 at 11:41:10 AM

Latest Report: Jul 26, 2014 at 11:00 AM


Visibility: N/A

Pressure: 29.98 "Hg

Humidity: 57%

Dew point: 61 °F

Location of KumanovoLocation

Historic Weather in Kumanovo — Graph

°F

Kumanovo temperature yesterday

Maximum temperature yesterday: 90 °F (at 3:00 PM)
Minimum temperature yesterday: 59 °F (at 5:30 AM)
Average temperature yesterday: 74 °F

Past Weeks' High & Low Weather Summary

 TemperatureHumidityPressure
High95 °F (Jul 21, 3:30 PM)100% (Jul 14, 6:00 AM)30.04 "Hg (Jul 14, 6:00 AM)
Low54 °F (Jul 12, 4:30 AM)20% (Jul 21, 3:30 PM)29.65 "Hg (Jul 11, 1:00 PM)
Average73 °F66%29.90 "Hg
* Reported Jul 11 10:00 AM — Jul 26 10:30 AM, Kumanovo, Weather by CustomWeather, © 2014

Note: Actual official high and low records may vary slightly from our data, if they occured in-between our weather recording intervals... More about our weather records

Advertising

Kumanovo weather history for previous 24 hours

 ConditionsComfort  
Time TempWeatherWind HumidityBarometerVisibility
10:30 AM
Jul 26
75 °FSunny.2 mph61%29.98 "Hg10 mi
10:00 AM75 °FSunny.2 mph61%29.98 "Hg10 mi
9:30 AM73 °FSunny.2 mph65%29.98 "Hg10 mi
9:00 AM70 °FSunny.2 mph78%29.98 "Hg10 mi
8:30 AM68 °FSunny.2 mph78%29.98 "Hg10 mi
8:00 AM68 °FSunny.No wind78%30.01 "Hg10 mi
7:30 AM66 °FSunny.No wind83%29.98 "Hg10 mi
7:00 AM63 °FSunny.No wind94%29.98 "Hg10 mi
6:30 AM61 °FSunny.3 mph94%29.98 "Hg10 mi
6:00 AM61 °FPassing clouds.No wind94%29.98 "Hg5 mi
5:30 AM61 °FPassing clouds.2 mph94%29.98 "Hg5 mi
5:00 AM59 °FPassing clouds.No wind100%29.98 "HgN/A
4:30 AM61 °FPassing clouds.No wind94%29.98 "HgN/A
4:00 AM61 °FPassing clouds.2 mph94%29.95 "HgN/A
3:30 AM61 °FPassing clouds.2 mph94%29.98 "HgN/A
3:00 AM63 °FPassing clouds.No wind88%29.98 "HgN/A
2:30 AM63 °FPassing clouds.No wind88%29.98 "HgN/A
2:00 AM64 °FPassing clouds.3 mph88%29.98 "HgN/A
1:30 AM64 °FPassing clouds.3 mph88%29.98 "HgN/A
1:00 AM64 °FPassing clouds.No wind88%29.98 "HgN/A
12:00 AM64 °FPassing clouds.No wind88%29.98 "HgN/A
11:30 PM
Jul 25
64 °FPassing clouds.No wind88%29.98 "HgN/A
11:00 PM64 °FPassing clouds.No wind88%29.95 "HgN/A
10:30 PM64 °FPassing clouds.No wind88%29.95 "HgN/A
10:00 PM64 °FPassing clouds.5 mph88%29.95 "HgN/A
9:30 PM64 °FLight rain. Partly cloudy.3 mph88%29.95 "HgN/A
9:00 PM64 °FLight rain. Partly cloudy.3 mph88%29.95 "HgN/A
8:30 PM64 °FThunderstorms. More clouds than sun.6 mph100%29.98 "Hg2 mi
8:00 PM68 °FStrong thunderstorms. Mostly cloudy.10 mph83%29.98 "Hg2 mi
7:30 PM79 °FThunderstorms. Broken clouds.5 mph51%29.92 "HgN/A
7:00 PM81 °FPartly sunny.6 mph48%29.89 "HgN/A
6:30 PM84 °FScattered clouds.10 mph40%29.86 "HgN/A
6:00 PM86 °FThundershowers. Scattered clouds.12 mph38%29.86 "HgN/A
5:30 PM88 °FScattered clouds.9 mph35%29.83 "HgN/A
5:00 PM88 °FScattered clouds.5 mph33%29.83 "HgN/A
4:30 PM88 °FThundershowers. Passing clouds.3 mph31%29.86 "HgN/A
4:00 PM88 °FPassing clouds.1 mph29%29.83 "HgN/A
3:30 PM90 °FPassing clouds.2 mph27%29.83 "HgN/A
3:00 PM90 °FPassing clouds.3 mph27%29.86 "HgN/A
2:30 PM88 °FPassing clouds.6 mph31%29.86 "HgN/A
2:00 PM88 °FPassing clouds.5 mph29%29.86 "HgN/A
1:30 PM88 °FPassing clouds.2 mph29%29.86 "HgN/A
1:00 PM86 °FPassing clouds.2 mph33%29.89 "HgN/A
12:30 PM86 °FPassing clouds.2 mph38%29.89 "HgN/A
12:00 PM84 °FPassing clouds.5 mph37%29.92 "HgN/A
11:30 AM82 °FPassing clouds.2 mph45%29.92 "HgN/A
11:00 AM81 °FPassing clouds.2 mph48%29.92 "HgN/A
Weather by CustomWeather, © 2014

See weather overviewHow to use our weather pages